Orbital Elements at Epoch 2459200.5 (2020-Dec-17.0) TDB
Reference: JPL 18 (heliocentric ecliptic J2000)
Element | Value | Uncertainty (1-sigma) | Units |
e | .06998372403237532 | 5.0297e-08 | |
a | 3.159788218797772 | 3.2482e-08 | au |
q | 2.938654472092678 | 1.5027e-07 | au |
i | 19.3968098598183 | 5.8094e-06 | deg |
node | 142.4858486757969 | 1.5561e-05 | deg |
peri | 128.9665279841023 | 4.6711e-05 | deg |
M | 133.0529237618056 | 4.5144e-05 | deg |
tp | 2458442.258916897845 (2018-Nov-19.75891690) | 0.0002549 | TDB |
period | 2051.565513926227 5.62 | 3.1634e-05 8.661e-08 | d yr |
n | .1754757513500227 | 2.7058e-09 | deg/d |
Q | 3.380921965502866 | 3.4755e-08 | au |
|
| | Orbit Determination Parameters
Additional Information
|